[[{"header":{"parameterUnit":"m.s-1","parameterCategory":1,"la1":30.2991,"la2":30.254,"lo1":-89.0895,"lo2":-89.0444,"dy":0.0017,"dx":0.0017,"nx":28,"ny":28,"refTime":"2025-02-09T09:00:00:Z","depth":0,"parameterNumber":2,"parameterNumberName":"U-component_of_WINDS"},"data":[0,0,0,0,0,0,0,0,0,0,0,0,0,0,0,0,0,0,0,0,0,0,0,0,0,0,0,0,0,0,0,0,0,0,0,0,0,0,0,0,0,0,0,0,0,0,0,0,0,0,0,0,0,0,0,0,0,0,0.6476,0.6477,0,0.6552,0.6553,0.6554,0.6573,0.6573,0.6572,0.6572,0.6653,0.6656,0.6658,0,0,0,0,0,0,0,0,0,0,0,0,0,0.6352,0.6354,0.6476,0.6477,0.6478,0.6552,0.6553,0.6554,0.6573,0.6573,0.6572,0.6572,0.6652,0.6655,0.6658,0,0,0,0,0,0,0,0,0,0,0,0,0,0.6415,0.6355,0.6476,0.6497,0.6499,0.6552,0.6553,0.6555,0.6574,0.6573,0.6572,0.6571,0.6651,0.6655,0.6659,0.6698,0,0,0.6671,0.6673,0,0,0,0,0,0,0,0,0.6411,0.6419,0.6493,0.6495,0.6498,0.6553,0.6539,0.6603,0.6574,0.6545,0.6572,0.6571,0.662,0.6627,0.6643,0.6701,0.6705,0.6671,0.6674,0.6675,0.6676,0,0,0,0,0,0,0,0.6407,0.6416,0.6507,0.6494,0.6497,0.6503,0.6511,0.6551,0.6586,0.6548,0.6549,0.6558,0.6622,0.6639,0.6645,0.6706,0.6671,0.6675,0.6677,0.6678,0.6802,0.6803,0,0,0,0,0,0,0.6398,0.6412,0.6504,0.6509,0.6452,0.6506,0.6515,0.6536,0.6586,0.6593,0.6559,0.6559,0.6633,0.664,0.6648,0.6698,0.6675,0.6679,0.6681,0.6801,0.6802,0.6804,0,0,0,0,0,0,0.6396,0.6406,0.6501,0.6461,0.6474,0.6509,0.6532,0.6538,0.6555,0.6594,0.6601,0.6569,0.6632,0.6642,0.6685,0.6701,0.6681,0.6684,0.68,0.6802,0.6803,0.6797,0,0,0,0,0,0,0.6392,0.6405,0.6419,0.6461,0.6476,0.6536,0.6533,0.654,0.6561,0.6562,0.6606,0.6612,0.6633,0.6679,0.6689,0.6706,0.6687,0.6799,0.6801,0.6803,0.6796,0.6798,0.68,0,0,0,0,0,0.6387,0.6415,0.642,0.6431,0.6494,0.6537,0.6545,0.6567,0.6562,0.6578,0.6603,0.6611,0.6697,0.6683,0.6695,0.6713,0.6798,0.68,0.6802,0.6795,0.6797,0.6799,0,0,0,0,0,0,0.6375,0.6421,0.6427,0.6468,0.6498,0.654,0.656,0.6569,0.6601,0.6601,0.6628,0.6637,0.6679,0.67,0.6684,0.6754,0.6748,0.6752,0.6738,0.6741,0.6743,0.6737,0.6691,0,0,0,0,0,0.6377,0.6407,0.6446,0.6479,0.6493,0.6524,0.6543,0.6558,0.659,0.6603,0.6632,0.6664,0.6699,0.6721,0.6755,0.6799,0.681,0.6817,0.6819,0.682,0.6824,0.685,0.6854,0.681,0.681,0.681,0,0,0.6381,0.641,0.6427,0.6477,0.6502,0.6534,0.6534,0.6568,0.6592,0.6609,0.6651,0.6673,0.6711,0.6755,0.6776,0.6774,0.6838,0.6823,0.6824,0.6827,0.6853,0.6857,0.6861,0.6812,0.6812,0.6811,0,0,0.6406,0.643,0.6461,0.6486,0.6523,0.6544,0.6551,0.6591,0.6606,0.6649,0.6663,0.6693,0.6751,0.6778,0.6799,0.6835,0.6845,0.6846,0.6856,0.6881,0.6885,0.6888,0.6902,0.6907,0.6849,0.6849,0.6849,0,0.6407,0.6454,0.6476,0.6509,0.6531,0.6546,0.6579,0.6602,0.6649,0.6665,0.6662,0.6736,0.6763,0.6814,0.6823,0.6839,0.685,0.6841,0.6882,0.6886,0.6889,0.6903,0.6908,0.6849,0.6849,0.6849,0.6849,0,0.6454,0.6487,0.6508,0.6552,0.6577,0.6609,0.6637,0.6659,0.6671,0.6692,0.6737,0.6769,0.681,0.6824,0.6836,0.6877,0.6875,0.6877,0.6872,0.6893,0.6906,0.6912,0.6849,0.6849,0.6849,0.6849,0,0,0.6473,0.6529,0.6537,0.6557,0.6601,0.6627,0.6661,0.67,0.672,0.6752,0.6782,0.6832,0.6834,0.6858,0.6874,0.6896,0.6924,0.6896,0.6897,0.6901,0.6973,0.6972,0.6978,0.693,0.6931,0.6932,0.697,0,0.6504,0.6564,0.6584,0.6635,0.6666,0.6682,0.6712,0.6742,0.6763,0.6794,0.6817,0.6853,0.6852,0.6867,0.689,0.6916,0.6939,0.6913,0.696,0.6961,0.6951,0.6984,0.6983,0.7018,0.6976,0.6976,0.6977,0,0.6547,0.658,0.6633,0.6673,0.6687,0.6713,0.6752,0.6781,0.6816,0.683,0.6857,0.6872,0.6909,0.6901,0.6955,0.6936,0.6957,0.6973,0.6975,0.6981,0.6971,0.6992,0.7029,0.7034,0.6985,0.6985,0.6984,0,0.6557,0.6614,0.6653,0.667,0.6718,0.6736,0.6757,0.6792,0.6815,0.6849,0.6865,0.6903,0.6924,0.6954,0.6979,0.6971,0.7031,0.7025,0.7045,0.7044,0.7057,0.7056,0.7099,0.7069,0.7069,0.7069,0.7068,0,0.6589,0.6621,0.6658,0.6682,0.672,0.6744,0.678,0.6802,0.6833,0.6863,0.688,0.6908,0.6939,0.6971,0.6991,0.7033,0.7042,0.7056,0.7061,0.7055,0.7053,0.7069,0.7068,0.707,0.707,0.7069,0.7069,0,0.6606,0.6632,0.6676,0.6718,0.6729,0.6755,0.6791,0.6816,0.6838,0.6876,0.6886,0.6921,0.696,0.6988,0.7038,0.7052,0.7097,0.7102,0.7085,0.7088,0.7107,0.7105,0.7161,0.7171,0.7134,0.7134,0.7134,0,0.6626,0.6651,0.6695,0.6716,0.6737,0.677,0.6794,0.6819,0.6843,0.6886,0.6906,0.6947,0.698,0.7043,0.7073,0.7112,0.7119,0.7136,0.7125,0.7118,0.712,0.7119,0.7122,0.7138,0.7138,0.7138,0.7138,0,0.6658,0.6669,0.6702,0.674,0.6767,0.6798,0.6829,0.6846,0.6877,0.6903,0.6943,0.6969,0.7021,0.7062,0.7104,0.7127,0.7139,0.7141,0.7148,0.7143,0.7132,0.7139,0.7091,0.714,0.714,0.714,0.714,0.714,0.6677,0.6701,0.6736,0.6772,0.6798,0.6827,0.6853,0.6878,0.6912,0.6955,0.6969,0.7011,0.7047,0.7105,0.7129,0.7163,0.7162,0.7172,0.7175,0.7177,0.7177,0.7126,0.7171,0.7171,0.7171,0.7171,0.7171,0,0.6711,0.6734,0.6767,0.6811,0.684,0.6847,0.6882,0.6906,0.6943,0.6975,0.7008,0.7055,0.7094,0.7128,0.7169,0.719,0.7197,0.72,0.72,0.7205,0.7175,0.7165,0.7195,0.7195,0.7195,0.7195,0.7195,0.7195,0.6732,0.6772,0.6789,0.6843,0.6867,0.6907,0.6927,0.6955,0.6981,0.7032,0.7065,0.7086,0.712,0.7164,0.7201,0.721,0.7225,0.7228,0.7238,0.721,0.7207,0.7204,0.7195,0.7231,0.7231,0.7265,0.7266,0.7266]},{"header":{"parameterUnit":"m.s-1","parameterCategory":1,"la1":30.2991,"la2":30.254,"lo1":-89.0895,"lo2":-89.0444,"dy":0.0017,"dx":0.0017,"nx":28,"ny":28,"refTime":"2025-02-09T09:00:00:Z","depth":0,"parameterNumber":3,"parameterNumberName":"V-component_of_WINDS"},"data":[0,0,0,0,0,0,0,0,0,0,0,0,0,0,0,0,0,0,0,0,0,0,0,0,0,0,0,0,0,0,0,0,0,0,0,0,0,0,0,0,0,0,0,0,0,0,0,0,0,0,0,0,0,0,0,0,0,0,1.6916,1.6916,0,1.6966,1.6966,1.6967,1.6979,1.6979,1.6978,1.6978,1.7029,1.703,1.7032,0,0,0,0,0,0,0,0,0,0,0,0,0,1.683,1.6831,1.6916,1.6916,1.6917,1.6966,1.6966,1.6967,1.6979,1.6979,1.6978,1.6978,1.7028,1.703,1.7032,0,0,0,0,0,0,0,0,0,0,0,0,0,1.6872,1.6832,1.6916,1.6929,1.6931,1.6965,1.6966,1.6967,1.6979,1.6979,1.6978,1.6978,1.7027,1.703,1.7032,1.7057,0,0,1.704,1.7041,0,0,0,0,0,0,0,0,1.687,1.6875,1.6926,1.6928,1.693,1.6966,1.6955,1.6997,1.6979,1.6961,1.6978,1.6977,1.7008,1.7012,1.7022,1.706,1.7062,1.704,1.7042,1.7043,1.7043,0,0,0,0,0,0,0,1.6867,1.6873,1.6935,1.6927,1.6929,1.6932,1.6938,1.6963,1.6986,1.6962,1.6963,1.6969,1.7009,1.702,1.7024,1.7063,1.704,1.7042,1.7044,1.7045,1.7123,1.7124,0,0,0,0,0,0,1.6862,1.6871,1.6934,1.6937,1.6898,1.6934,1.694,1.6955,1.6986,1.6991,1.6969,1.6969,1.7016,1.7021,1.7026,1.7058,1.7043,1.7045,1.7046,1.7122,1.7123,1.7124,0,0,0,0,0,0,1.686,1.6867,1.6932,1.6904,1.6913,1.6936,1.6952,1.6956,1.6967,1.6992,1.6996,1.6977,1.7016,1.7022,1.7049,1.7059,1.7046,1.7048,1.7122,1.7123,1.7124,1.7121,0,0,0,0,0,0,1.6857,1.6867,1.6877,1.6904,1.6914,1.6955,1.6953,1.6957,1.6971,1.6972,1.6999,1.7004,1.7016,1.7046,1.7052,1.7063,1.705,1.7121,1.7122,1.7123,1.7121,1.7122,1.7123,0,0,0,0,0,1.6854,1.6874,1.6877,1.6885,1.6927,1.6956,1.6961,1.6975,1.6972,1.6982,1.6998,1.7003,1.7057,1.7048,1.7055,1.7067,1.712,1.7122,1.7123,1.712,1.7122,1.7123,0,0,0,0,0,0,1.6846,1.6878,1.6882,1.6911,1.693,1.6958,1.6971,1.6977,1.6998,1.6997,1.7014,1.702,1.7046,1.7059,1.7049,1.7093,1.7089,1.7091,1.7084,1.7086,1.7087,1.7084,1.7052,0,0,0,0,0,1.6848,1.6869,1.6895,1.6918,1.6928,1.6948,1.6961,1.697,1.6991,1.6999,1.7017,1.7037,1.7059,1.7073,1.7094,1.7122,1.7128,1.7133,1.7135,1.7136,1.7138,1.7154,1.7157,1.7128,1.7128,1.7128,0,0,1.6852,1.6871,1.6883,1.6917,1.6933,1.6955,1.6955,1.6977,1.6993,1.7003,1.703,1.7043,1.7067,1.7095,1.7108,1.7106,1.7147,1.7137,1.7138,1.714,1.7156,1.7159,1.7161,1.7129,1.7129,1.7129,0,0,1.6869,1.6886,1.6907,1.6924,1.6949,1.6962,1.6967,1.6993,1.7003,1.703,1.7038,1.7057,1.7094,1.711,1.7123,1.7147,1.7152,1.7153,1.716,1.7176,1.7178,1.718,1.7189,1.7192,1.7155,1.7155,1.7155,0,1.6871,1.6903,1.6917,1.694,1.6954,1.6964,1.6986,1.7001,1.7031,1.7041,1.7039,1.7085,1.7102,1.7134,1.714,1.715,1.7156,1.7151,1.7177,1.7179,1.7181,1.719,1.7193,1.7155,1.7155,1.7155,1.7155,0,1.6904,1.6926,1.694,1.697,1.6986,1.7008,1.7025,1.7039,1.7047,1.706,1.7088,1.7108,1.7133,1.7141,1.7149,1.7175,1.7173,1.7173,1.717,1.7184,1.7192,1.7196,1.7156,1.7155,1.7155,1.7155,0,0,1.6919,1.6956,1.6961,1.6975,1.7003,1.702,1.7042,1.7067,1.7079,1.71,1.7119,1.7149,1.715,1.7165,1.7174,1.7188,1.7206,1.7187,1.7187,1.719,1.7236,1.7236,1.724,1.7209,1.7209,1.721,1.7234,0,1.6941,1.6981,1.6994,1.7028,1.7049,1.7058,1.7077,1.7096,1.7109,1.7128,1.7142,1.7164,1.7162,1.7172,1.7185,1.7201,1.7215,1.7199,1.7227,1.7228,1.7222,1.7244,1.7245,1.7267,1.7238,1.7238,1.7238,0,1.6972,1.6993,1.7029,1.7054,1.7064,1.7081,1.7105,1.7123,1.7145,1.7153,1.7169,1.7177,1.7201,1.7194,1.7227,1.7215,1.7227,1.7236,1.7238,1.7242,1.7235,1.725,1.7274,1.7277,1.7244,1.7243,1.7243,0,1.6981,1.7018,1.7044,1.7055,1.7085,1.7097,1.711,1.7131,1.7146,1.7166,1.7176,1.7199,1.7212,1.7229,1.7243,1.7237,1.7274,1.7269,1.7282,1.7282,1.729,1.729,1.7318,1.7296,1.7296,1.7296,1.7296,0,1.7004,1.7026,1.7048,1.7065,1.7089,1.7104,1.7127,1.7141,1.7159,1.7178,1.7187,1.7204,1.7221,1.7241,1.7252,1.7277,1.7282,1.729,1.7293,1.729,1.7289,1.7298,1.7298,1.7297,1.7297,1.7297,1.7297,0,1.7018,1.7034,1.7064,1.709,1.7096,1.7113,1.7135,1.7151,1.7164,1.7188,1.7194,1.7214,1.7237,1.7253,1.7283,1.729,1.7318,1.732,1.7311,1.7312,1.7324,1.7323,1.7361,1.7366,1.734,1.734,1.734,0,1.7033,1.705,1.7078,1.7091,1.7104,1.7126,1.714,1.7155,1.717,1.7195,1.7208,1.7232,1.7253,1.7289,1.7306,1.7329,1.7332,1.7344,1.7336,1.7332,1.7334,1.7333,1.7335,1.7345,1.7346,1.7346,1.7346,0,1.7058,1.7065,1.7086,1.7109,1.7127,1.7146,1.7165,1.7176,1.7193,1.721,1.7234,1.7249,1.728,1.7304,1.7328,1.7341,1.7347,1.7348,1.7352,1.735,1.7344,1.7348,1.7315,1.7347,1.7347,1.7347,1.7347,1.7347,1.7073,1.7089,1.7111,1.7134,1.715,1.7168,1.7184,1.7199,1.7219,1.7246,1.7252,1.7278,1.7299,1.7332,1.7345,1.7365,1.7364,1.737,1.7372,1.7373,1.7374,1.734,1.7369,1.7369,1.7369,1.7369,1.7369,0,1.7099,1.7114,1.7135,1.7161,1.718,1.7183,1.7204,1.7219,1.7241,1.726,1.728,1.7308,1.7331,1.7349,1.7373,1.7385,1.7388,1.7391,1.7391,1.7394,1.7373,1.7368,1.7388,1.7388,1.7388,1.7388,1.7388,1.7388,1.7115,1.7142,1.7151,1.7185,1.72,1.7225,1.7237,1.7253,1.7268,1.7299,1.7318,1.733,1.7349,1.7374,1.7395,1.74,1.7409,1.7411,1.7417,1.7397,1.7395,1.7393,1.7388,1.7413,1.7413,1.7436,1.7436,1.7436]}]]